GS0511 Weather Reports


Display with metric or nautical units.
time (UTC)temp
F
wind
direction
speed
MPH
gust
MPH
rain 1hr
in
rain 24hr
in
rain mn
in
humidity
%
barometer
mb
20260509011502 47 303 0.0 0.0 0.00 0.08 0.04 72 1011.8
20260509010004 48 303 0.0 0.0 0.00 0.08 0.04 74 1011.5
20260509004500 50 303 0.0 0.0 0.00 0.08 0.04 71 1011.3
20260509003000 51 303 0.0 0.0 0.00 0.08 0.04 66 1011.2
20260509001500 52 303 0.0 0.0 0.00 0.08 0.04 64 1011.2
20260508234500 55 303 0.0 0.0 0.00 0.08 0.04 63 1011.1
20260508233000 55 303 0.0 1.0 0.00 0.08 0.04 51 1011.0
20260508230007 56 283 0.0 1.0 0.00 0.08 0.04 46 1010.9
20260508223000 57 274 3.0 7.0 0.00 0.08 0.04 42 1010.9
20260508221500 57 360 2.0 3.0 0.00 0.08 0.04 45 1010.9
20260508220008 58 251 2.0 8.0 0.00 0.08 0.04 40 1011.0
20260508214500 57 274 3.0 6.0 0.00 0.08 0.04 44 1011.0
20260508211500 57 345 3.0 8.0 0.00 0.08 0.04 48 1011.1
20260508210003 57 235 3.0 11.0 0.00 0.08 0.04 41 1011.2
20260508204500 57 184 3.0 8.0 0.00 0.08 0.04 45 1011.3
20260508203000 57 32 3.0 7.0 0.00 0.08 0.04 50 1011.4
20260508201500 56 256 4.0 9.0 0.00 0.08 0.04 45 1011.6
20260508200002 56 286 4.0 11.0 0.00 0.08 0.04 46 1011.8
20260508192959 55 272 4.0 8.0 0.00 0.08 0.04 50 1012.2
20260508191459 55 227 3.0 10.0 0.00 0.08 0.04 51 1012.4
20260508190004 56 330 3.0 7.0 0.00 0.08 0.04 49 1012.3
20260508184459 54 290 3.0 9.0 0.00 0.08 0.04 52 1012.4
20260508182959 54 325 4.0 8.0 0.00 0.08 0.04 51 1012.4
20260508181459 54 214 4.0 11.0 0.00 0.08 0.04 52 1012.5
20260508180006 53 182 5.0 9.0 0.00 0.08 0.04 59 1012.6
20260508174459 53 267 4.0 7.0 0.00 0.08 0.04 58 1012.8
20260508172959 52 213 5.0 8.0 0.00 0.08 0.04 64 1012.8
20260508170003 50 267 4.0 10.0 0.00 0.08 0.04 67 1013.1
20260508164459 50 221 4.0 8.0 0.00 0.08 0.04 66 1013.1
20260508162959 49 209 3.0 7.0 0.00 0.08 0.04 71 1013.3
20260508161459 49 294 5.0 9.0 0.00 0.08 0.04 71 1013.6
20260508160004 48 209 4.0 10.0 0.00 0.08 0.04 73 1013.6
20260508154459 47 170 4.0 9.0 0.00 0.08 0.04 72 1013.6
20260508153000 47 225 3.0 5.0 0.00 0.08 0.04 75 1013.7
20260508151459 46 185 3.0 5.0 0.00 0.08 0.04 80 1013.6
20260508150005 45 171 4.0 7.0 0.00 0.08 0.04 81 1013.6
20260508142958 44 165 5.0 9.0 0.00 0.08 0.04 85 1013.4
20260508141458 44 224 4.0 9.0 0.00 0.08 0.04 85 1013.5
20260508140002 43 192 2.0 7.0 0.00 0.08 0.04 85 1013.4
20260508134459 42 261 3.0 6.0 0.00 0.08 0.04 89 1013.7
20260508132958 42 253 2.0 4.0 0.00 0.08 0.04 89 1013.7
20260508131459 42 265 3.0 7.0 0.01 0.08 0.04 89 1013.5
20260508130002 41 207 2.0 5.0 0.02 0.08 0.04 91 1013.6
20260508124459 41 236 1.0 4.0 0.03 0.08 0.04 93 1013.5
20260508122959 40 265 1.0 4.0 0.03 0.08 0.04 92 1013.5
20260508121459 41 267 4.0 12.0 0.02 0.07 0.03 93 1013.6
20260508114459 41 261 1.0 3.0 0.00 0.05 0.01 97 1012.8
20260508112958 40 213 0.0 0.0 0.00 0.05 0.01 97 1012.4
20260508111458 40 213 0.0 2.0 0.00 0.05 0.01 97 1012.2
20260508110001 40 213 0.0 2.0 0.00 0.05 0.01 97 1012.1
20260508104459 39 213 0.0 0.0 0.00 0.05 0.01 97 1011.8
20260508102959 39 213 0.0 0.0 0.00 0.05 0.01 96 1011.9
20260508101458 39 213 0.0 0.0 0.00 0.05 0.01 96 1011.8
20260508100003 39 213 0.0 2.0 0.00 0.05 0.01 96 1011.9
20260508094458 39 213 0.0 0.0 0.00 0.05 0.01 96 1012.1
20260508092959 38 213 0.0 0.0 0.00 0.05 0.01 97 1012.2
20260508091458 38 213 0.0 0.0 0.00 0.05 0.01 96 1012.4
20260508090005 38 213 0.0 0.0 0.00 0.05 0.01 96 1012.4
20260508084458 37 213 0.0 0.0 0.00 0.05 0.01 96 1012.4
20260508082959 37 213 0.0 0.0 0.00 0.05 0.01 95 1012.4
20260508081458 37 213 0.0 0.0 0.00 0.05 0.01 95 1012.3
20260508080001 37 213 0.0 0.0 0.00 0.05 0.01 95 1012.3
20260508074458 37 213 0.0 0.0 0.00 0.05 0.01 94 1012.3
20260508072959 38 213 0.0 0.0 0.00 0.05 0.01 94 1012.3
20260508064457 39 213 0.0 1.0 0.00 0.05 0.01 93 1012.5
20260508061457 40 213 0.0 1.0 0.00 0.05 0.01 93 1012.5
20260508060001 41 213 0.0 1.0 0.00 0.05 0.01 93 1012.6
20260508054457 41 224 1.0 3.0 0.00 0.05 0.01 93 1012.6
20260508052958 42 221 1.0 4.0 0.01 0.05 0.01 93 1012.8
20260508051457 42 225 1.0 2.0 0.01 0.05 0.01 94 1012.8
20260508050004 42 225 0.0 2.0 0.01 0.05 0.01 93 1012.7
20260508044457 42 236 0.0 2.0 0.01 0.05 0.01 93 1012.8
20260508042957 42 236 0.0 0.0 0.01 0.04 0.00 93 1012.7
20260508041458 42 236 1.0 2.0 0.03 0.04 0.00 92 1012.6
20260508040006 43 236 1.0 3.0 0.03 0.04 0.00 92 1012.6
20260508034501 43 263 1.0 4.0 0.04 0.04 0.04 91 1012.7
20260508033002 43 275 1.0 3.0 0.03 0.03 0.03 91 1012.6
20260508031501 43 238 1.0 4.0 0.01 0.01 0.01 89 1012.8
20260508030007 43 313 2.0 7.0 0.01 0.01 0.01 87 1012.7
20260508024500 44 260 1.0 3.0 0.00 0.00 0.00 86 1012.8
20260508023000 44 277 1.0 3.0 0.00 0.00 0.00 84 1012.7
20260508021500 44 298 2.0 4.0 0.00 0.00 0.00 83 1012.8
20260508020004 45 279 2.0 4.0 0.00 0.00 0.00 82 1012.6
20260508014500 45 277 2.0 3.0 0.00 0.00 0.00 80 1012.5
20260508013000 45 296 2.0 4.0 0.00 0.00 0.00 79 1012.4